This demonstration page uses our WeatherBlox Daily Observations layout. Learn more.

Left ArrowRight Arrow

Hourly Observations for June 14, 2019

Temp ( °F °C ) Dew Point ( °F °C ) Humidity (%) Winds ( mph kmh ) Pressure ( in mb ) Visibility ( mi km ) Precip ( " mm )
12:53 am 00:53 Clear 65 18.3 50 10 59 59 Calm 29.64 1004 10 16 0.00 0.00
1:53 am 01:53 Mostly Clear 60 15.6 50 10 70 70 WNW 7 11 29.65 1004 10 16 0.00 0.00
2:53 am 02:53 Mostly Cloudy 63 17.2 51 10.6 65 65 WNW 13 20 29.71 1006 10 16 0.00 0.00
3:53 am 03:53 Mostly Cloudy 59 15 57 13.9 93 93 SSW 6 9 29.70 1006 10 16 0.06 1.52
4:53 am 04:53 Mostly Clear 58 14.4 56 13.3 93 93 S 8 13 29.68 1005 10 16 0.00 0.00
5:53 am 05:53 Sunny 57 13.9 56 13.3 96 96 W 7 11 29.70 1006 10 16 0.00 0.00
6:53 am 06:53 Mostly Cloudy 60 15.6 57 13.9 90 90 WSW 7 11 29.71 1006 10 16 0.00 0.00
7:53 am 07:53 Cloudy 62 16.7 58 14.4 86 86 WSW 7 11 29.72 1007 10 16 0.00 0.00
8:53 am 08:53 Sunny 67 19.4 57 13.9 71 71 NW 3 6 29.73 1007 10 16 0.00 0.00
9:53 am 09:53 Sunny 69 20.6 55 12.8 61 61 WSW 7 11 29.71 1006 10 16 0.00 0.00
10:53 am 10:53 Partly Cloudy 69 20.6 56 13.3 63 63 W 10 17 29.73 1007 10 16 0.00 0.03
11:53 am 11:53 Mostly Sunny 72 22.2 54 12.2 53 53 WNW 8 13 29.73 1007 10 16 0.00 0.00
12:53 pm 12:53 Partly Cloudy 74 23.3 52 11.1 46 46 WNW 15 24 29.73 1007 10 16 0.00 0.00
1:53 pm 13:53 Mostly Sunny 77 25 49 9.4 37 37 NNW 20 31 29.72 1007 10 16 0.00 0.00
2:53 pm 14:53 Mostly Sunny 79 26.1 45 7.2 30 30 NW 22 35 29.71 1006 10 16 0.00 0.00
3:53 pm 15:53 Sunny 75 23.9 50 10 41 41 NNW 18 30 29.75 1008 10 16 0.00 0.00
4:53 pm 16:53 Partly Cloudy 76 24.4 49 9.4 39 39 NNW 14 22 29.76 1008 10 16 0.00 0.00
5:53 pm 17:53 Mostly Sunny 72 22.2 49 9.4 44 44 WNW 23 37 29.78 1008 10 16 0.00 0.00
6:53 pm 18:53 Sunny 71 21.7 49 9.4 46 46 NW 17 28 29.79 1009 10 16 0.00 0.00
7:53 pm 19:53 Mostly Sunny 69 20.6 47 8.3 45 45 NW 21 33 29.82 1010 10 16 0.00 0.00
8:53 pm 20:53 Mostly Sunny 66 18.9 49 9.4 54 54 NW 10 17 29.83 1010 10 16 0.00 0.00
9:53 pm 21:53 Clear 60 15.6 48 8.9 65 65 WNW 7 11 29.85 1011 10 16 0.00 0.00
10:53 pm 22:53 Mostly Clear 52 11.1 47 8.3 83 83 W 6 9 29.88 1012 10 16 0.00 0.00
11:53 pm 23:53 Clear 50 10 46 7.8 86 86 WSW 6 9 29.89 1012 10 16 0.00 0.00

Powered by AerisWeather